Location: Piotrkow Trybunalski
(51.4000°N, 19.6830°E)
Time: 05:29:52
(UTC+02:00)

STRAND 1 - Pass Details

Date: 02 March 2024
Orbit: 764 x 779 km, 98.4° (Epoch: 24 April)

Event Time Altitude Azimuth Distance (km) Brightness Sun altitude
Rises 05:27:19 0° 175° (S) 3,251 ? -9.5°
Reaches altitude 10° 05:29:40 10° 179° (S) 2,328 ? -9.2°
Maximum altitude 05:34:44 59° 259° (WSW) 899 ? -8.4°
Drops below altitude 10° 05:39:51 10° 339° (NNW) 2,343 ? -7.6°
Sets 05:42:13 0° 343° (NNW) 3,274 ? -7.2°
